| time (UTC) | temp F | wind direction | speed MPH | gust MPH | rain 1hr in | rain 24hr in | rain mn in | humidity % | barometer mb |
| 20260906014039 | 56 | 259 | 3.0 | 4.0 | 0.00 | 0.00 | 0.00 | 66 | 1026.5 |
| 20260906013038 | 56 | 245 | 2.0 | 4.0 | 0.00 | 0.00 | 0.00 | 65 | 1026.5 |
| 20260906012017 | 57 | 253 | 2.0 | 5.0 | 0.00 | 0.00 | 0.00 | 66 | 1026.5 |
| 20260906011019 | 57 | 220 | 4.0 | 8.0 | 0.00 | 0.00 | 0.00 | 66 | 1026.5 |
| 20260906010045 | 57 | 261 | 3.0 | 6.0 | 0.00 | 0.00 | 0.00 | 66 | 1026.5 |
| 20260906005015 | 57 | 246 | 2.0 | 3.0 | 0.00 | 0.04 | 0.00 | 67 | 1026.5 |
| 20260906004015 | 57 | 252 | 1.0 | 2.0 | 0.00 | 0.04 | 0.00 | 68 | 1026.5 |
| 20260906003030 | 57 | 248 | 2.0 | 3.0 | 0.00 | 0.04 | 0.00 | 69 | 1026.5 |
| 20260906002040 | 57 | 273 | 1.0 | 2.0 | 0.00 | 0.04 | 0.00 | 67 | 1026.5 |
| 20260906001021 | 57 | 243 | 1.0 | 2.0 | 0.00 | 0.04 | 0.00 | 68 | 1026.5 |
| 20260906000022 | 57 | 239 | 2.0 | 3.0 | 0.00 | 0.04 | 0.00 | 67 | 1026.5 |
| 20260905235017 | 57 | 255 | 1.0 | 2.0 | 0.00 | 0.04 | 0.00 | 67 | 1026.5 |
| 20260905234050 | 57 | 237 | 2.0 | 3.0 | 0.00 | 0.04 | 0.00 | 68 | 1026.5 |
| 20260905233152 | 57 | 332 | 2.0 | 4.0 | 0.00 | 0.04 | 0.00 | 69 | 1025.6 |
| 20260905232023 | 57 | 253 | 1.0 | 2.0 | 0.00 | 0.04 | 0.00 | 66 | 1025.4 |
| 20260905231144 | 57 | 225 | 0.0 | 1.0 | 0.00 | 0.04 | 0.00 | 67 | 1025.4 |
| 20260905230049 | 58 | 234 | 2.0 | 3.0 | 0.00 | 0.04 | 0.00 | 66 | 1025.4 |
| 20260905225032 | 58 | 270 | 0.0 | 1.0 | 0.00 | 0.04 | 0.00 | 65 | 1025.4 |
| 20260905224030 | 58 | 270 | 0.0 | 2.0 | 0.00 | 0.04 | 0.00 | 65 | 1025.4 |
| 20260905223030 | 58 | 0.0 | 0.0 | 0.00 | 0.04 | 0.00 | 64 | 1025.4 | |
| 20260905222031 | 58 | 0.0 | 0.0 | 0.00 | 0.04 | 0.00 | 63 | 1025.4 | |
| 20260905221024 | 58 | 0.0 | 0.0 | 0.00 | 0.04 | 0.00 | 64 | 1025.4 | |
| 20260905220051 | 58 | 225 | 1.0 | 2.0 | 0.00 | 0.04 | 0.00 | 65 | 1025.4 |
| 20260905215015 | 58 | 233 | 1.0 | 2.0 | 0.00 | 0.13 | 0.12 | 64 | 1025.4 |
| 20260905214051 | 59 | 264 | 1.0 | 2.0 | 0.00 | 0.13 | 0.12 | 64 | 1025.4 |
| 20260905213044 | 59 | 0.0 | 0.0 | 0.00 | 0.13 | 0.12 | 63 | 1025.4 | |
| 20260905211534 | 59 | 0.0 | 0.0 | 0.00 | 0.13 | 0.12 | 63 | 1025.4 | |
| 20260905210518 | 59 | 231 | 1.0 | 2.0 | 0.00 | 0.13 | 0.12 | 63 | 1025.4 |
| 20260905205544 | 59 | 0 | 0.0 | 2.0 | 0.00 | 0.33 | 0.12 | 62 | 1024.4 |
| 20260905204542 | 59 | 238 | 2.0 | 3.0 | 0.00 | 0.33 | 0.12 | 63 | 1024.4 |
| 20260905203041 | 59 | 237 | 2.0 | 3.0 | 0.00 | 0.33 | 0.12 | 61 | 1024.4 |
| 20260905202026 | 59 | 246 | 2.0 | 3.0 | 0.00 | 0.33 | 0.12 | 61 | 1024.4 |
| 20260905201042 | 59 | 0.0 | 0.0 | 0.00 | 0.33 | 0.12 | 60 | 1024.4 | |
| 20260905200035 | 60 | 270 | 0.0 | 4.0 | 0.00 | 0.33 | 0.12 | 59 | 1024.4 |
| 20260905195021 | 60 | 232 | 2.0 | 3.0 | 0.00 | 0.33 | 0.12 | 59 | 1024.4 |
| 20260905194057 | 60 | 256 | 2.0 | 3.0 | 0.00 | 0.33 | 0.12 | 57 | 1024.4 |
| 20260905193034 | 60 | 254 | 3.0 | 6.0 | 0.00 | 0.33 | 0.12 | 57 | 1023.5 |
| 20260905192018 | 60 | 237 | 2.0 | 3.0 | 0.00 | 0.33 | 0.12 | 57 | 1023.3 |
| 20260905191104 | 61 | 250 | 2.0 | 3.0 | 0.00 | 0.33 | 0.12 | 57 | 1023.3 |
| 20260905190054 | 61 | 209 | 2.0 | 3.0 | 0.00 | 0.33 | 0.12 | 55 | 1023.3 |
| 20260905185017 | 61 | 270 | 3.0 | 5.0 | 0.00 | 0.37 | 0.12 | 55 | 1023.3 |
| 20260905184037 | 61 | 280 | 4.0 | 8.0 | 0.00 | 0.37 | 0.12 | 52 | 1023.3 |
| 20260905183056 | 62 | 344 | 3.0 | 5.0 | 0.00 | 0.37 | 0.12 | 49 | 1023.3 |
| 20260905182017 | 62 | 317 | 5.0 | 6.0 | 0.00 | 0.37 | 0.12 | 48 | 1023.3 |
| 20260905181050 | 63 | 347 | 4.0 | 7.0 | 0.00 | 0.37 | 0.12 | 46 | 1022.3 |
| 20260905175522 | 64 | 340 | 4.0 | 5.0 | 0.00 | 0.37 | 0.12 | 45 | 1022.3 |
| 20260905174550 | 64 | 204 | 4.0 | 7.0 | 0.00 | 0.37 | 0.12 | 43 | 1022.3 |
| 20260905173050 | 65 | 245 | 4.0 | 7.0 | 0.00 | 0.37 | 0.12 | 42 | 1022.3 |
| 20260905172041 | 65 | 260 | 3.0 | 5.0 | 0.00 | 0.37 | 0.12 | 42 | 1022.3 |
| 20260905171034 | 65 | 281 | 5.0 | 7.0 | 0.00 | 0.37 | 0.12 | 41 | 1022.3 |
| 20260905170018 | 66 | 262 | 3.0 | 6.0 | 0.00 | 0.37 | 0.12 | 41 | 1022.3 |
| 20260905165058 | 66 | 261 | 5.0 | 10.0 | 0.00 | 0.37 | 0.12 | 40 | 1022.3 |
| 20260905164042 | 66 | 267 | 4.0 | 6.0 | 0.00 | 0.37 | 0.12 | 41 | 1022.3 |
| 20260905162524 | 66 | 269 | 4.0 | 8.0 | 0.00 | 0.37 | 0.12 | 39 | 1021.3 |
| 20260905161531 | 67 | 277 | 5.0 | 6.0 | 0.00 | 0.37 | 0.12 | 39 | 1021.3 |
| 20260905160533 | 68 | 280 | 3.0 | 5.0 | 0.00 | 0.37 | 0.12 | 39 | 1021.3 |
| 20260905155549 | 68 | 251 | 4.0 | 5.0 | 0.00 | 0.37 | 0.12 | 39 | 1021.3 |
| 20260905154544 | 68 | 245 | 8.0 | 10.0 | 0.00 | 0.37 | 0.12 | 38 | 1021.3 |
| 20260905153528 | 68 | 223 | 6.0 | 8.0 | 0.00 | 0.37 | 0.12 | 39 | 1021.3 |
| 20260905152537 | 69 | 225 | 6.0 | 9.0 | 0.00 | 0.37 | 0.12 | 38 | 1021.3 |
| 20260905151524 | 69 | 240 | 5.0 | 7.0 | 0.00 | 0.37 | 0.12 | 38 | 1021.3 |
| 20260905150600 | 69 | 248 | 6.0 | 8.0 | 0.00 | 0.37 | 0.12 | 38 | 1021.3 |
| 20260905145524 | 70 | 241 | 5.0 | 7.0 | 0.00 | 0.37 | 0.12 | 37 | 1021.3 |
| 20260905144537 | 70 | 227 | 8.0 | 10.0 | 0.00 | 0.37 | 0.12 | 37 | 1021.3 |
| 20260905143539 | 70 | 215 | 8.0 | 13.0 | 0.00 | 0.37 | 0.12 | 38 | 1021.3 |
| 20260905142516 | 70 | 238 | 6.0 | 9.0 | 0.00 | 0.37 | 0.12 | 38 | 1021.3 |
| 20260905141544 | 70 | 212 | 7.0 | 9.0 | 0.00 | 0.37 | 0.12 | 40 | 1021.3 |
| 20260905140611 | 68 | 232 | 5.0 | 6.0 | 0.00 | 0.37 | 0.12 | 41 | 1021.3 |
| 20260905135515 | 68 | 231 | 4.0 | 7.0 | 0.00 | 0.37 | 0.12 | 40 | 1021.3 |
| 20260905134557 | 67 | 220 | 7.0 | 10.0 | 0.00 | 0.37 | 0.12 | 41 | 1021.3 |
| 20260905133611 | 68 | 293 | 4.0 | 6.0 | 0.00 | 0.37 | 0.12 | 42 | 1021.3 |
| 20260905132535 | 67 | 282 | 6.0 | 9.0 | 0.00 | 0.37 | 0.12 | 43 | 1021.3 |
| 20260905131523 | 68 | 238 | 4.0 | 7.0 | 0.00 | 0.37 | 0.12 | 43 | 1021.3 |
| 20260905130607 | 67 | 261 | 3.0 | 6.0 | 0.00 | 0.37 | 0.12 | 42 | 1021.3 |
| 20260905125606 | 68 | 217 | 6.0 | 8.0 | 0.00 | 0.37 | 0.12 | 41 | 1021.3 |
| 20260905124531 | 71 | 249 | 7.0 | 12.0 | 0.00 | 0.37 | 0.12 | 39 | 1021.3 |
| 20260905123544 | 70 | 263 | 4.0 | 6.0 | 0.00 | 0.37 | 0.12 | 41 | 1021.3 |
| 20260905122526 | 70 | 217 | 7.0 | 10.0 | 0.00 | 0.37 | 0.12 | 40 | 1021.3 |
| 20260905121551 | 69 | 313 | 5.0 | 10.0 | 0.00 | 0.37 | 0.12 | 43 | 1021.3 |
| 20260905120539 | 69 | 253 | 6.0 | 10.0 | 0.00 | 0.37 | 0.12 | 42 | 1021.3 |
| 20260905115554 | 69 | 237 | 7.0 | 10.0 | 0.00 | 0.37 | 0.12 | 42 | 1021.3 |
| 20260905114517 | 66 | 215 | 7.0 | 16.0 | 0.00 | 0.37 | 0.12 | 43 | 1021.3 |
| 20260905113600 | 69 | 227 | 5.0 | 7.0 | 0.00 | 0.37 | 0.12 | 43 | 1021.3 |
| 20260905112542 | 67 | 226 | 7.0 | 10.0 | 0.00 | 0.37 | 0.12 | 44 | 1021.3 |
| 20260905111046 | 65 | 252 | 7.0 | 10.0 | 0.00 | 0.37 | 0.12 | 45 | 1021.3 |
| 20260905105551 | 66 | 261 | 4.0 | 5.0 | 0.00 | 0.37 | 0.12 | 46 | 1021.3 |
| 20260905104534 | 68 | 250 | 7.0 | 9.0 | 0.00 | 0.37 | 0.12 | 46 | 1021.3 |
| 20260905103518 | 68 | 225 | 10.0 | 12.0 | 0.00 | 0.37 | 0.12 | 46 | 1021.3 |
| 20260905102521 | 67 | 239 | 6.0 | 8.0 | 0.00 | 0.37 | 0.12 | 47 | 1021.3 |
| 20260905101542 | 66 | 276 | 4.0 | 6.0 | 0.00 | 0.37 | 0.12 | 48 | 1021.3 |
| 20260905100526 | 68 | 278 | 6.0 | 7.0 | 0.00 | 0.37 | 0.12 | 47 | 1021.3 |
| 20260905095534 | 67 | 242 | 9.0 | 13.0 | 0.00 | 0.37 | 0.12 | 47 | 1021.3 |
| 20260905094551 | 67 | 223 | 4.0 | 5.0 | 0.00 | 0.37 | 0.12 | 47 | 1021.3 |
| 20260905093534 | 66 | 270 | 7.0 | 10.0 | 0.00 | 0.37 | 0.12 | 48 | 1021.3 |
| 20260905092538 | 67 | 237 | 6.0 | 9.0 | 0.00 | 0.37 | 0.12 | 48 | 1021.3 |
| 20260905091558 | 67 | 251 | 5.0 | 6.0 | 0.00 | 0.37 | 0.12 | 50 | 1021.3 |
| 20260905090526 | 65 | 280 | 5.0 | 7.0 | 0.00 | 0.37 | 0.12 | 55 | 1021.3 |
| 20260905085554 | 65 | 293 | 5.0 | 9.0 | 0.00 | 0.37 | 0.12 | 55 | 1021.3 |
| 20260905084558 | 64 | 299 | 6.0 | 8.0 | 0.00 | 0.37 | 0.12 | 58 | 1020.6 |
| 20260905083533 | 66 | 298 | 7.0 | 8.0 | 0.00 | 0.37 | 0.12 | 61 | 1020.2 |
| 20260905082601 | 62 | 280 | 4.0 | 7.0 | 0.00 | 0.37 | 0.12 | 64 | 1020.2 |
| 20260905081515 | 63 | 214 | 5.0 | 8.0 | 0.00 | 0.37 | 0.12 | 62 | 1020.2 |
| 20260905080535 | 65 | 227 | 7.0 | 9.0 | 0.00 | 0.37 | 0.12 | 58 | 1020.2 |
| 20260905075537 | 64 | 276 | 5.0 | 10.0 | 0.00 | 0.37 | 0.12 | 62 | 1020.2 |
| 20260905074537 | 63 | 241 | 4.0 | 7.0 | 0.00 | 0.37 | 0.12 | 64 | 1020.2 |
| 20260905073522 | 61 | 220 | 5.0 | 6.0 | 0.00 | 0.37 | 0.12 | 69 | 1020.2 |
| 20260905072557 | 60 | 215 | 4.0 | 6.0 | 0.00 | 0.37 | 0.12 | 71 | 1020.2 |
| 20260905071557 | 59 | 293 | 4.0 | 8.0 | 0.00 | 0.37 | 0.12 | 73 | 1020.2 |
| 20260905070545 | 59 | 211 | 2.0 | 3.0 | 0.00 | 0.37 | 0.12 | 74 | 1020.2 |
| 20260905065545 | 59 | 228 | 3.0 | 4.0 | 0.00 | 0.37 | 0.12 | 75 | 1020.2 |
| 20260905064612 | 58 | 242 | 3.0 | 3.0 | 0.00 | 0.37 | 0.12 | 76 | 1020.2 |
| 20260905063520 | 58 | 234 | 3.0 | 4.0 | 0.00 | 0.37 | 0.12 | 78 | 1020.2 |
| 20260905062532 | 58 | 231 | 3.0 | 4.0 | 0.00 | 0.37 | 0.12 | 78 | 1020.2 |
| 20260905061555 | 58 | 242 | 3.0 | 4.0 | 0.00 | 0.37 | 0.12 | 78 | 1019.6 |
| 20260905060518 | 58 | 240 | 3.0 | 6.0 | 0.00 | 0.37 | 0.12 | 79 | 1019.2 |
| 20260905055532 | 58 | 230 | 4.0 | 6.0 | 0.00 | 0.41 | 0.12 | 79 | 1019.2 |
| 20260905054614 | 58 | 231 | 3.0 | 4.0 | 0.00 | 0.41 | 0.12 | 79 | 1019.2 |
| 20260905053543 | 58 | 238 | 2.0 | 3.0 | 0.00 | 0.41 | 0.12 | 79 | 1019.2 |
| 20260905052527 | 58 | 242 | 2.0 | 4.0 | 0.00 | 0.41 | 0.12 | 79 | 1019.2 |
| 20260905051611 | 57 | 243 | 3.0 | 4.0 | 0.00 | 0.41 | 0.12 | 79 | 1019.2 |
| 20260905050515 | 57 | 267 | 3.0 | 6.0 | 0.00 | 0.41 | 0.12 | 79 | 1019.2 |
| 20260905045032 | 57 | 245 | 1.0 | 2.0 | 0.00 | 0.41 | 0.12 | 79 | 1018.2 |
| 20260905043020 | 57 | 218 | 1.0 | 2.0 | 0.00 | 0.41 | 0.12 | 78 | 1018.2 |
| 20260905042034 | 57 | 254 | 1.0 | 2.0 | 0.00 | 0.41 | 0.12 | 79 | 1018.2 |
| 20260905041038 | 57 | 247 | 2.0 | 3.0 | 0.00 | 0.41 | 0.12 | 78 | 1018.2 |
| 20260905040058 | 57 | 244 | 2.0 | 2.0 | 0.00 | 0.41 | 0.12 | 79 | 1018.2 |
| 20260905035023 | 58 | 229 | 3.0 | 4.0 | 0.00 | 0.41 | 0.12 | 79 | 1018.2 |
| 20260905034031 | 58 | 225 | 2.0 | 3.0 | 0.00 | 0.41 | 0.12 | 79 | 1018.2 |
| 20260905033038 | 58 | 218 | 2.0 | 2.0 | 0.00 | 0.41 | 0.12 | 79 | 1018.2 |
| 20260905032042 | 58 | 225 | 1.0 | 3.0 | 0.00 | 0.41 | 0.12 | 79 | 1018.2 |
| 20260905031024 | 58 | 254 | 2.0 | 3.0 | 0.00 | 0.41 | 0.12 | 79 | 1018.2 |
| 20260905030051 | 58 | 240 | 3.0 | 3.0 | 0.00 | 0.41 | 0.12 | 79 | 1018.2 |
| 20260905024520 | 58 | 255 | 0.0 | 2.0 | 0.00 | 0.41 | 0.12 | 80 | 1018.2 |
| 20260905023534 | 58 | 225 | 2.0 | 3.0 | 0.00 | 0.41 | 0.12 | 80 | 1018.2 |
| 20260905022518 | 59 | 229 | 4.0 | 5.0 | 0.00 | 0.41 | 0.12 | 80 | 1017.1 |
| 20260905021533 | 59 | 282 | 2.0 | 5.0 | 0.00 | 0.41 | 0.12 | 80 | 1017.1 |
| 20260905020542 | 59 | 240 | 3.0 | 5.0 | 0.00 | 0.41 | 0.12 | 80 | 1017.1 |
| 20260905015531 | 59 | 256 | 4.0 | 7.0 | 0.04 | 0.41 | 0.12 | 80 | 1017.1 |